[[{"header":{"parameterUnit":"m.s-1","parameterCategory":1,"la1":30.2991,"la2":30.254,"lo1":-89.0895,"lo2":-89.0444,"dy":0.0017,"dx":0.0017,"nx":28,"ny":28,"refTime":"2024-02-19T09:00:00:Z","depth":0,"parameterNumber":2,"parameterNumberName":"U-component_of_WINDS"},"data":[0,0,0,0,0,0,0,0,0,0,0,0,0,0,0,0,0,0,0,0,0,0,0,0,0,0,0,0,0,0,0,0,0,0,0,0,0,0,0,0,0,0,0,0,0,0,0,0,0,0,0,0,0,0,0,0,0,0,1.339,1.339,0,1.3361,1.3361,1.336,1.3296,1.3295,1.3294,1.3292,1.3261,1.3262,1.3262,0,0,0,0,0,0,0,0,0,0,0,0,0,1.3392,1.3392,1.339,1.339,1.339,1.3361,1.3361,1.336,1.3296,1.3295,1.3293,1.3292,1.3261,1.3262,1.3262,0,0,0,0,0,0,0,0,0,0,0,0,0,1.338,1.3392,1.339,1.3354,1.3351,1.3361,1.336,1.336,1.3297,1.3295,1.3293,1.3291,1.3261,1.3262,1.3262,1.3305,0,0,1.3264,1.3264,0,0,0,0,0,0,0,0,1.338,1.338,1.336,1.3357,1.3353,1.333,1.335,1.3342,1.3297,1.3317,1.3292,1.329,1.3286,1.3284,1.3283,1.3303,1.3302,1.3264,1.3265,1.3265,1.3265,0,0,0,0,0,0,0,1.3381,1.3381,1.3379,1.336,1.3355,1.334,1.3336,1.3348,1.3313,1.3315,1.3311,1.3308,1.3284,1.3283,1.3282,1.3302,1.3264,1.3265,1.3265,1.3265,1.3357,1.3359,0,0,0,0,0,0,1.3387,1.3382,1.338,1.3378,1.3362,1.3341,1.3337,1.3339,1.3312,1.3307,1.331,1.3305,1.3283,1.3281,1.3281,1.333,1.3265,1.3265,1.3266,1.3355,1.3358,1.336,0,0,0,0,0,0,1.3388,1.3388,1.3381,1.3378,1.3376,1.3343,1.3347,1.334,1.3339,1.3308,1.3302,1.3315,1.3281,1.328,1.33,1.3328,1.3266,1.3266,1.3353,1.3356,1.3359,1.3428,0,0,0,0,0,0,1.3388,1.3388,1.3404,1.3379,1.3377,1.3401,1.3348,1.3341,1.334,1.3334,1.3312,1.3306,1.3279,1.3299,1.33,1.3327,1.3267,1.335,1.3354,1.3358,1.3423,1.3433,1.3442,0,0,0,0,0,1.3388,1.3424,1.3405,1.3405,1.3396,1.3402,1.3401,1.3369,1.3343,1.3358,1.3339,1.3307,1.3325,1.3302,1.3303,1.333,1.3348,1.3353,1.3358,1.3419,1.3431,1.3442,0,0,0,0,0,0,1.3452,1.342,1.3399,1.3427,1.3418,1.3391,1.341,1.3383,1.3381,1.3375,1.3336,1.3332,1.3358,1.3346,1.3321,1.3371,1.3331,1.3336,1.3378,1.3389,1.3398,1.3401,1.3267,0,0,0,0,0,1.347,1.3478,1.3449,1.3478,1.3474,1.3443,1.3445,1.3422,1.341,1.3406,1.3388,1.3378,1.3382,1.3385,1.3386,1.3421,1.3416,1.3441,1.345,1.3458,1.3463,1.3482,1.3493,1.3376,1.3376,1.3376,0,0,1.3506,1.3489,1.3497,1.349,1.348,1.349,1.344,1.3452,1.3459,1.3408,1.3426,1.3413,1.3399,1.3428,1.3439,1.3419,1.3494,1.3464,1.347,1.3471,1.3488,1.3499,1.3509,1.3379,1.3378,1.3378,0,0,1.3577,1.3565,1.3588,1.3579,1.3565,1.3545,1.355,1.3528,1.3517,1.3535,1.3497,1.3505,1.3511,1.3504,1.3501,1.3571,1.3542,1.3573,1.3622,1.3641,1.365,1.3658,1.3684,1.3694,1.3578,1.3578,1.3578,0,1.3623,1.3636,1.3603,1.3618,1.3616,1.3571,1.3595,1.3588,1.3575,1.3575,1.3552,1.3561,1.3548,1.3575,1.3593,1.3591,1.3597,1.3575,1.3652,1.3659,1.3666,1.3691,1.3701,1.3582,1.3581,1.3581,1.3581,0,1.3695,1.3705,1.3725,1.3715,1.3716,1.3735,1.3704,1.3709,1.3687,1.3669,1.3689,1.3672,1.367,1.3675,1.3652,1.3699,1.3687,1.3659,1.3618,1.3682,1.3704,1.3713,1.3587,1.3586,1.3585,1.3584,0,0,1.3804,1.3776,1.3784,1.378,1.3762,1.3769,1.3787,1.3785,1.3791,1.3784,1.3798,1.3806,1.378,1.3777,1.3753,1.377,1.3828,1.3739,1.3738,1.3757,1.388,1.3902,1.3914,1.3809,1.381,1.3812,1.3882,0,1.3871,1.39,1.3871,1.3906,1.3915,1.3873,1.3889,1.388,1.3864,1.387,1.3852,1.3858,1.3823,1.3821,1.3836,1.3818,1.3852,1.3812,1.3822,1.3823,1.3828,1.3925,1.3948,1.4015,1.389,1.3892,1.3893,0,1.3953,1.3951,1.3987,1.3969,1.3971,1.3986,1.3983,1.3989,1.3979,1.3966,1.3964,1.3935,1.3952,1.3913,1.3936,1.3909,1.3911,1.3903,1.3905,1.3905,1.3862,1.3929,1.4035,1.4046,1.3906,1.3905,1.3904,0,1.4031,1.4037,1.406,1.4057,1.4035,1.4047,1.4038,1.4026,1.4028,1.4025,1.4026,1.4026,1.4026,1.4026,1.3999,1.3973,1.4026,1.3984,1.4017,1.4018,1.403,1.4029,1.4139,1.4031,1.403,1.403,1.403,0,1.4109,1.4133,1.4095,1.4109,1.4134,1.4101,1.4128,1.4115,1.4105,1.4116,1.4079,1.4091,1.4054,1.4062,1.404,1.4063,1.4063,1.4054,1.4048,1.4058,1.4059,1.4059,1.4054,1.4033,1.4032,1.4032,1.4031,0,1.42,1.4175,1.4197,1.4176,1.4171,1.4191,1.4173,1.4185,1.4167,1.4182,1.4184,1.4156,1.4164,1.4137,1.4139,1.4125,1.4159,1.4145,1.4163,1.4159,1.4194,1.4191,1.4308,1.4322,1.4204,1.4205,1.4206,0,1.4252,1.4269,1.425,1.4256,1.4249,1.4258,1.426,1.4228,1.4232,1.4222,1.4236,1.4241,1.4242,1.4256,1.4237,1.4239,1.4225,1.4266,1.4225,1.4235,1.4227,1.4226,1.4229,1.4274,1.4276,1.4277,1.4278,0,1.4347,1.4334,1.4338,1.4339,1.4343,1.4342,1.4338,1.4344,1.431,1.4316,1.4324,1.4326,1.4329,1.4334,1.4333,1.4324,1.4296,1.4291,1.4299,1.4309,1.4319,1.4315,1.4187,1.4288,1.4287,1.4287,1.4286,1.4286,1.442,1.4434,1.4424,1.443,1.4425,1.4422,1.4434,1.4418,1.4424,1.4424,1.4406,1.4417,1.4408,1.4403,1.4397,1.4406,1.4387,1.4398,1.4401,1.4405,1.4411,1.4317,1.4406,1.4405,1.4405,1.4405,1.4404,0,1.4514,1.4506,1.4512,1.4509,1.4514,1.4488,1.4483,1.4489,1.45,1.4494,1.4497,1.4506,1.4512,1.4493,1.4496,1.4507,1.4494,1.4509,1.4508,1.4507,1.4427,1.4421,1.4519,1.4519,1.4519,1.4519,1.4519,1.4519,1.4564,1.4587,1.4573,1.4594,1.4585,1.4597,1.4596,1.4595,1.4589,1.4602,1.4606,1.4594,1.4584,1.4586,1.459,1.4584,1.4587,1.4607,1.4597,1.4523,1.4512,1.4501,1.4495,1.4607,1.4608,1.4676,1.4676,1.4677]},{"header":{"parameterUnit":"m.s-1","parameterCategory":1,"la1":30.2991,"la2":30.254,"lo1":-89.0895,"lo2":-89.0444,"dy":0.0017,"dx":0.0017,"nx":28,"ny":28,"refTime":"2024-02-19T09:00:00:Z","depth":0,"parameterNumber":3,"parameterNumberName":"V-component_of_WINDS"},"data":[0,0,0,0,0,0,0,0,0,0,0,0,0,0,0,0,0,0,0,0,0,0,0,0,0,0,0,0,0,0,0,0,0,0,0,0,0,0,0,0,0,0,0,0,0,0,0,0,0,0,0,0,0,0,0,0,0,0,-1.1123,-1.1122,0,-1.1055,-1.1055,-1.1054,-1.0991,-1.099,-1.099,-1.0989,-1.0916,-1.0915,-1.0914,0,0,0,0,0,0,0,0,0,0,0,0,0,-1.1194,-1.1193,-1.1123,-1.1122,-1.1121,-1.1055,-1.1054,-1.1054,-1.0991,-1.099,-1.099,-1.0989,-1.0917,-1.0915,-1.0914,0,0,0,0,0,0,0,0,0,0,0,0,0,-1.1148,-1.1193,-1.1123,-1.1082,-1.1078,-1.1056,-1.1054,-1.1053,-1.0992,-1.099,-1.0989,-1.0988,-1.0917,-1.0915,-1.0914,-1.0925,0,0,-1.0908,-1.0907,0,0,0,0,0,0,0,0,-1.1151,-1.1146,-1.1089,-1.1085,-1.108,-1.1031,-1.1053,-1.101,-1.0992,-1.1024,-1.0989,-1.0988,-1.0955,-1.095,-1.094,-1.0922,-1.0918,-1.0908,-1.0907,-1.0906,-1.0905,0,0,0,0,0,0,0,-1.1154,-1.1148,-1.1096,-1.1088,-1.1083,-1.1066,-1.1058,-1.1045,-1.0997,-1.1021,-1.1017,-1.101,-1.0952,-1.0942,-1.0938,-1.0917,-1.0908,-1.0906,-1.0905,-1.0904,-1.0905,-1.0906,0,0,0,0,0,0,-1.1164,-1.1151,-1.1098,-1.1094,-1.1114,-1.1066,-1.1057,-1.1048,-1.0997,-1.0988,-1.1011,-1.1007,-1.0945,-1.094,-1.0935,-1.0945,-1.0906,-1.0904,-1.0903,-1.0904,-1.0905,-1.0907,0,0,0,0,0,0,-1.1166,-1.116,-1.1101,-1.1121,-1.1113,-1.1066,-1.1055,-1.1047,-1.1036,-1.0989,-1.098,-1.1009,-1.0944,-1.0937,-1.0928,-1.0941,-1.0903,-1.0902,-1.0903,-1.0904,-1.0906,-1.0965,0,0,0,0,0,0,-1.1168,-1.1161,-1.1166,-1.1122,-1.1112,-1.1097,-1.1056,-1.1046,-1.1034,-1.1028,-1.0985,-1.0976,-1.0943,-1.0931,-1.0926,-1.0938,-1.09,-1.0901,-1.0903,-1.0905,-1.0962,-1.0969,-1.0975,0,0,0,0,0,-1.1171,-1.1184,-1.1166,-1.116,-1.1117,-1.1097,-1.1091,-1.1054,-1.1035,-1.1039,-1.1008,-1.0978,-1.0941,-1.0931,-1.0925,-1.0936,-1.09,-1.0903,-1.0905,-1.0959,-1.0967,-1.0974,0,0,0,0,0,0,-1.1229,-1.1178,-1.1157,-1.1157,-1.1132,-1.1087,-1.1091,-1.1064,-1.1043,-1.1038,-1.0991,-1.0982,-1.0978,-1.0956,-1.0946,-1.0945,-1.0916,-1.0918,-1.0959,-1.0967,-1.0973,-1.0978,-1.0899,0,0,0,0,0,-1.1243,-1.1232,-1.1187,-1.1191,-1.118,-1.1138,-1.1128,-1.1101,-1.1073,-1.1062,-1.1031,-1.1004,-1.0986,-1.0975,-1.0956,-1.0958,-1.0948,-1.0963,-1.097,-1.0975,-1.0977,-1.0976,-1.0983,-1.0915,-1.0915,-1.0915,0,0,-1.1269,-1.1239,-1.1235,-1.1202,-1.118,-1.1169,-1.1129,-1.1119,-1.1111,-1.106,-1.105,-1.1026,-1.0992,-1.0989,-1.0986,-1.0971,-1.0993,-1.0978,-1.0983,-1.0982,-1.0979,-1.0986,-1.0992,-1.0917,-1.0916,-1.0916,0,0,-1.1312,-1.1289,-1.129,-1.1268,-1.1236,-1.1207,-1.1208,-1.1167,-1.1149,-1.1139,-1.11,-1.1089,-1.1059,-1.1037,-1.1022,-1.1057,-1.1028,-1.1052,-1.1085,-1.1085,-1.1091,-1.1095,-1.1107,-1.1112,-1.1054,-1.1054,-1.1054,0,-1.1348,-1.1332,-1.1293,-1.1286,-1.1272,-1.1227,-1.1227,-1.1208,-1.117,-1.1161,-1.1145,-1.1107,-1.1081,-1.1073,-1.1081,-1.1071,-1.1069,-1.1057,-1.1093,-1.1097,-1.1101,-1.1112,-1.1117,-1.1057,-1.1057,-1.1057,-1.1056,0,-1.1379,-1.1368,-1.1372,-1.1339,-1.1325,-1.1322,-1.1282,-1.1273,-1.1247,-1.1221,-1.121,-1.1178,-1.1152,-1.1147,-1.1122,-1.1135,-1.1126,-1.1102,-1.1073,-1.1111,-1.1121,-1.1125,-1.1062,-1.1061,-1.106,-1.1059,0,0,-1.1456,-1.1401,-1.1404,-1.1388,-1.1349,-1.1339,-1.1333,-1.1309,-1.1302,-1.1278,-1.1271,-1.1248,-1.1225,-1.1208,-1.118,-1.118,-1.121,-1.1156,-1.1154,-1.1167,-1.1222,-1.124,-1.1246,-1.119,-1.1191,-1.1192,-1.1224,0,-1.1492,-1.1481,-1.1446,-1.1444,-1.1434,-1.1391,-1.1385,-1.136,-1.1335,-1.1322,-1.1293,-1.1278,-1.1249,-1.1239,-1.1237,-1.1207,-1.122,-1.1204,-1.1183,-1.1183,-1.1193,-1.1251,-1.127,-1.1303,-1.1228,-1.1229,-1.1229,0,-1.1533,-1.1513,-1.1511,-1.1472,-1.1467,-1.1463,-1.1438,-1.1426,-1.1396,-1.1378,-1.1359,-1.1328,-1.1318,-1.1292,-1.1278,-1.1267,-1.1257,-1.124,-1.1241,-1.1237,-1.1208,-1.1249,-1.1312,-1.1317,-1.1235,-1.1234,-1.1234,0,-1.1589,-1.1562,-1.1557,-1.1545,-1.15,-1.1498,-1.1479,-1.1448,-1.1436,-1.1414,-1.1405,-1.1382,-1.1369,-1.1351,-1.1314,-1.1298,-1.1304,-1.1274,-1.1287,-1.1289,-1.129,-1.1291,-1.1353,-1.1284,-1.1284,-1.1284,-1.1284,0,-1.1634,-1.1634,-1.1582,-1.1579,-1.1578,-1.1537,-1.1537,-1.1514,-1.1487,-1.1478,-1.1439,-1.1431,-1.1383,-1.1369,-1.134,-1.1332,-1.1327,-1.1311,-1.1303,-1.1314,-1.1316,-1.1307,-1.1303,-1.1285,-1.1285,-1.1285,-1.1284,0,-1.1697,-1.1662,-1.1654,-1.1613,-1.1602,-1.1603,-1.1567,-1.1562,-1.1535,-1.1524,-1.1519,-1.1476,-1.1458,-1.1419,-1.139,-1.137,-1.137,-1.1356,-1.1381,-1.1376,-1.1392,-1.1391,-1.145,-1.1455,-1.1383,-1.1384,-1.1385,0,-1.1727,-1.1727,-1.1686,-1.1678,-1.1661,-1.1648,-1.1635,-1.1595,-1.1584,-1.155,-1.1549,-1.1528,-1.1509,-1.1482,-1.1447,-1.1425,-1.141,-1.1432,-1.1406,-1.1418,-1.141,-1.1411,-1.141,-1.1438,-1.1439,-1.144,-1.144,0,-1.1785,-1.1768,-1.1752,-1.1731,-1.1718,-1.1699,-1.1677,-1.1672,-1.1626,-1.1615,-1.1597,-1.1583,-1.1554,-1.1533,-1.1506,-1.1484,-1.1455,-1.1449,-1.1451,-1.1462,-1.1477,-1.1469,-1.1396,-1.1448,-1.1447,-1.1446,-1.1446,-1.1446,-1.1832,-1.183,-1.1801,-1.1785,-1.1765,-1.1746,-1.174,-1.1712,-1.1697,-1.1671,-1.1648,-1.1632,-1.1601,-1.1561,-1.1542,-1.1528,-1.1513,-1.1516,-1.1517,-1.1518,-1.1523,-1.1479,-1.1523,-1.1523,-1.1522,-1.1522,-1.1522,0,-1.1888,-1.1868,-1.1853,-1.1825,-1.1813,-1.1787,-1.1762,-1.1753,-1.1739,-1.1714,-1.1697,-1.1676,-1.1656,-1.162,-1.1597,-1.1593,-1.1578,-1.1588,-1.1587,-1.1583,-1.1538,-1.1538,-1.16,-1.16,-1.16,-1.16,-1.16,-1.16,-1.1916,-1.1911,-1.189,-1.1875,-1.1853,-1.1839,-1.1826,-1.1808,-1.1788,-1.1767,-1.1751,-1.1728,-1.1698,-1.1673,-1.1653,-1.1643,-1.1636,-1.165,-1.1635,-1.1593,-1.1586,-1.1579,-1.158,-1.1649,-1.1649,-1.1681,-1.1682,-1.1682]}]]